Page, AZ

2:45 AM MDT on May 27, 2017 (GMT -0600)
Page Municipal

Weather History for KPGA - November, 2012

Change the Weather History Date:

Thursday, November 22, 2012

  Actual Average Record
Temperature  
Mean Temperature 49 °F -  
Max Temperature 61 °F 50 °F 69 °F (1966)
Min Temperature 37 °F 33 °F 22 °F (1957)
Degree Days  
Heating Degree Days 16    
Moisture  
Dew Point 23 °F    
Average Humidity 36    
Maximum Humidity 53    
Minimum Humidity 17    
Precipitation  
Precipitation 0.00 in - - ()
Sea Level Pressure  
Sea Level Pressure 30.18 in    
Wind  
Wind Speed 2 mph (WSW)    
Max Wind Speed 6 mph    
Max Gust Speed -    
Visibility 10 miles    
Events      
Averages and records for this station are not official NWS values.
T = Trace of Precipitation, MM = Missing Value Source: NWS Daily Summary

Daily Weather History Graph

Daily Weather History Graph

Search for Another Location

Airport or City:

Trip Planner

Search our weather history database for the weather conditions in past years. The results will help you decide how hot, cold, wet, or windy it might be!

Date:

Astronomy

Nov. 22, 2012 Rise Set
Actual Time 7:11 AM MST 5:11 PM MST
Civil Twilight 6:43 AM MST 5:40 PM MST
Nautical Twilight 6:12 AM MST 6:11 PM MST
Astronomical Twilight 5:41 AM MST 6:42 PM MST
Moon 1:52 PM MST (11/22) 1:42 AM MST (11/22)
Length of Visible Light 10h 56m
Length of Day
9h 59m
Waxing Gibbous, 72% of the Moon is Illuminated
Nov 22
Waxing Gibbous
Nov 28
Full
Dec 6
Last Quarter
Dec 13
New
Dec 19
First Quarter

Hourly Weather History & Observations

Time (MST) Temp. Windchill Dew Point Humidity Pressure Visibility Wind Dir Wind Speed Gust Speed Precip Events Conditions
12:53 AM 45.0 °F 43.5 °F 21.9 °F 40% 30.06 in 10.0 mi SSE 3.5 mph - N/A   Clear
1:53 AM 43.0 °F 41.3 °F 21.9 °F 43% 30.05 in 10.0 mi SSE 3.5 mph - N/A   Clear
2:53 AM 42.1 °F - 21.9 °F 45% 30.06 in 10.0 mi Calm Calm - N/A   Clear
3:53 AM 43.0 °F 40.3 °F 21.9 °F 43% 30.07 in 10.0 mi WSW 4.6 mph - N/A   Clear
4:53 AM 42.1 °F - 21.0 °F 43% 30.09 in 10.0 mi Calm Calm - N/A   Clear
5:53 AM 39.9 °F - 21.9 °F 49% 30.12 in 9.0 mi Calm Calm - N/A   Clear
6:53 AM 39.0 °F - 23.0 °F 53% 30.15 in 10.0 mi Calm Calm - N/A   Clear
7:53 AM 41.0 °F 39.0 °F 21.9 °F 47% 30.17 in 10.0 mi WSW 3.5 mph - N/A   Clear
8:53 AM 45.0 °F 43.5 °F 21.0 °F 39% 30.20 in 10.0 mi SSW 3.5 mph - N/A   Clear
9:53 AM 48.0 °F - 23.0 °F 37% 30.20 in 10.0 mi Calm Calm - N/A   Clear
10:53 AM 48.9 °F - 25.0 °F 39% 30.21 in 10.0 mi NNW 4.6 mph - N/A   Clear
11:53 AM 53.1 °F - 25.0 °F 34% 30.20 in 10.0 mi Calm Calm - N/A   Clear
12:53 PM 57.0 °F - 24.1 °F 28% 30.17 in 10.0 mi Calm Calm - N/A   Clear
1:53 PM 60.1 °F - 23.0 °F 24% 30.16 in 10.0 mi Variable 3.5 mph - N/A   Clear
2:53 PM 61.0 °F - 23.0 °F 23% 30.15 in 10.0 mi WNW 4.6 mph - N/A   Clear
3:53 PM 60.1 °F - 23.0 °F 24% 30.16 in 10.0 mi North 4.6 mph - N/A   Clear
4:53 PM 57.0 °F - 24.1 °F 28% 30.18 in 10.0 mi Calm Calm - N/A   Clear
5:53 PM 52.0 °F - 25.0 °F 35% 30.22 in 10.0 mi Calm Calm - N/A   Clear
6:53 PM 50.0 °F - 25.0 °F 38% 30.25 in 10.0 mi Calm Calm - N/A   Clear
7:53 PM 48.0 °F - 25.0 °F 41% 30.27 in 10.0 mi WSW 3.5 mph - N/A   Clear
8:53 PM 48.9 °F - 24.1 °F 38% 30.27 in 10.0 mi SW 5.8 mph - N/A   Clear
9:53 PM 48.0 °F - 24.1 °F 39% 30.29 in 10.0 mi SW 3.5 mph - N/A   Clear
10:53 PM 46.9 °F - 24.1 °F 41% 30.30 in 10.0 mi Calm Calm - N/A   Clear
11:53 PM 46.9 °F - 23.0 °F 39% 30.30 in 10.0 mi WSW 3.5 mph - N/A   Clear